Weather observations for the past three days for
Clearfield, Clearfield-Lawrence Airport
Imperial (Metric)
Date Time (edt) Wind (mph) Vis. (mi.) Weather Sky Cond. Temperature (ºF) Relative Humidity Wind Chill (°F) Heat Index (°F) Pressure Precipitation (in)
Air Dwpt 6 hour altimeter (in) sea level (mb) 1 hr 3 hr 6 hr
Max. Min.
12 20:54 Calm 10.00 Partly Cloudy SCT065 80.1 64.9 60% 82 30.18 1020.7
12 19:54 Calm 10.00 Fair CLR 82.9 64 89.1 82.9 53% 84 30.17 1020.5
12 18:54 Calm 10.00 Mostly Cloudy BKN070 86 63 46% 87 30.15 1019.9
12 17:54 Vrbl 7 10.00 Partly Cloudy SCT070 87.1 59 39% 86 30.15 1019.7
12 16:54 Vrbl 5 10.00 A Few Clouds FEW060 88 61 40% 88 30.14 1019.6
12 15:54 Calm 10.00 Partly Cloudy SCT060 88 62.1 42% 88 30.16 1020.0
12 14:54 Calm 10.00 Mostly Cloudy BKN055 87.1 63 45% 88 30.17 1020.3
12 13:54 Vrbl 5 10.00 Overcast OVC049 86 63 86 69.1 46% 87 30.19 1021.1
12 12:54 SW 5 10.00 Mostly Cloudy FEW043 BKN055 81 63 54% 82 30.21 1021.8
12 11:54 Calm 10.00 Mostly Cloudy BKN047 80.1 64 58% 82 30.21 1022.0
12 10:54 Vrbl 3 10.00 Mostly Cloudy FEW029 SCT039 BKN048 77 64 64% 79 30.21 1022.1
12 09:54 Vrbl 6 10.00 Partly Cloudy SCT019 75.9 66 72% 77 30.21 1022.2
12 08:54 NE 5 10.00 Mostly Cloudy BKN011 BKN025 73 66 79% 30.21 1022.0
12 07:54 N 3 10.00 Mostly Cloudy BKN027 69.1 64.9 69.1 64.9 87% 30.19 1021.6
12 06:54 Calm 10.00 Overcast FEW004 OVC021 66 64.9 96% 30.19 1021.5
12 05:54 Calm 10.00 Overcast OVC019 66 64.9 96% 30.18 1021.1
12 04:54 Calm 10.00 A Few Clouds FEW020 64.9 64 97% 30.16 1020.4
12 03:54 N 3 10.00 Overcast OVC049 66.9 64.9 93% 30.15 1020.1
12 02:54 Calm 10.00 Overcast OVC045 68 64.9 90% 30.16 1020.4
12 01:54 Calm 10.00 Overcast OVC046 68 64.9 73 68 90% 30.16 1020.5
12 00:54 Calm 10.00 Overcast OVC047 68 64.9 90% 30.16 1020.4
11 23:54 Calm 10.00 Overcast OVC047 69.1 64.9 87% 30.15 1020.2
11 22:54 Calm 10.00 Overcast BKN045 OVC050 69.1 64 84% 30.15 1020.2
11 21:54 W 3 10.00 Overcast BKN025 BKN037 OVC047 70 64.9 84% 30.14 1019.9
11 20:54 W 6 10.00 Overcast FEW019 OVC030 71.1 64 79% 30.14 1019.7
11 19:54 W 9 10.00 Overcast BKN021 BKN028 OVC050 73 64 77 72 74% 30.12 1019.0
11 18:54 W 6 10.00 Overcast FEW024 SCT034 OVC050 73.9 64 71% 30.1 1018.3
11 17:54 NW 8 10.00 Overcast SCT023 BKN031 OVC046 75.9 64 67% 78 30.08 1017.7
11 16:54 NW 10 10.00 Overcast SCT022 BKN027 OVC045 73.9 64.9 74% 30.07 1017.5
11 15:54 W 12 G 18 10.00 Overcast SCT026 BKN037 OVC050 75 64.9 71% 77 30.06 1017.2
11 14:54 SW 8 G 20 10.00 Overcast SCT025 BKN029 OVC038 73 64 74% 30.06 1016.9
11 13:54 SW 9 10.00 Overcast OVC035 73.9 63 75 66.9 69% 30.04 1016.4
11 12:54 W 9 10.00 Overcast OVC030 73.9 63 69% 30.03 1015.9
11 11:54 NW 12 G 17 10.00 Overcast FEW021 OVC031 73 64 74% 30.02 1015.4
11 10:54 W 9 G 20 10.00 Light Rain SCT016 OVC022 69.1 64 84% 30 1015.0
11 09:54 W 10 10.00 Overcast BKN017 OVC021 70 63 79% 29.99 1014.5
11 08:54 SW 12 G 21 10.00 Overcast OVC014 68 63 84% 29.98 1013.9
11 07:54 SW 10 G 17 10.00 Overcast OVC012 66.9 62.1 66.9 66 84% 29.95 1013.0
11 06:54 SW 9 10.00 Overcast OVC014 66.9 62.1 84% 29.93 1012.1
11 05:54 SW 9 G 18 10.00 Overcast OVC013 66.9 62.1 84% 29.91 1011.5
11 04:54 SW 12 G 21 10.00 Overcast OVC015 66.9 61 81% 29.9 1011.0
11 03:54 SW 12 G 25 10.00 Overcast OVC015 66.9 61 81% 29.88 1010.5
11 02:54 SW 10 10.00 Overcast OVC015 66.9 62.1 84% 29.87 1010.2
11 01:54 SW 18 G 29 10.00 Overcast OVC015 66.9 62.1 82.9 66.9 84% 29.86 1010.0
11 00:54 SW 12 G 20 10.00 Overcast OVC019 69.1 62.1 78% 29.86 1009.8
10 23:54 SW 12 G 26 10.00 Mostly Cloudy SCT024 BKN030 BKN041 70 61 73% 29.85 1009.5
10 22:54 SW 13 G 29 10.00 A Few Clouds FEW033 72 61 68% 29.84 1009.2
10 21:54 SW 16 G 31 10.00 Mostly Cloudy FEW042 BKN065 75.9 61 60% 78 29.81 1007.9
10 20:54 SW 16 G 29 10.00 Fair CLR 79 62.1 56% 80 29.78 1007.0
10 19:54 SW 18 G 30 10.00 Fair CLR 82.9 61 93.9 82.9 48% 83 29.75 1006.0
10 18:54 W 18 G 32 10.00 Partly Cloudy SCT100 86 64 48% 87 29.74 1005.9
10 17:54 W 20 G 36 10.00 Fair CLR 90 66.9 47% 93 29.72 1004.8
10 16:54 SW 16 G 36 10.00 Overcast BKN080 OVC090 91.9 64.9 41% 94 29.68 1003.4
10 15:54 S 8 10.00 Mostly Cloudy FEW047 SCT055 BKN070 89.1 75 63% 99 29.68 1003.5
10 14:54 S 7 10.00 Mostly Cloudy SCT070 BKN080 88 75.9 68% 99 29.7 1004.3
10 13:54 S 8 G 23 10.00 Mostly Cloudy FEW055 SCT070 BKN100 84.9 75 91 77 72% 93 29.72 1005.2 0.01 0.01
10 12:54 Vrbl 7 10.00 Mostly Cloudy SCT050 SCT080 BKN100 84.9 75 72% 93 29.75 1005.9
10 11:54 S 8 G 20 10.00 Partly Cloudy FEW043 SCT055 90 73 58% 98 29.77 1006.4
10 10:54 S 8 10.00 A Few Clouds FEW037 89.1 73 59% 97 29.79 1007.2
10 09:54 S 9 G 17 10.00 Partly Cloudy FEW045 SCT100 86 73 65% 93 29.81 1007.9
10 08:54 SW 3 10.00 Fair CLR 81 72 74% 85 29.82 1008.4
10 07:54 N 5 10.00 Fair CLR 77 70 77 69.1 79% 79 29.83 1008.6
10 06:54 N 6 10.00 Fair CLR 71.1 68 90% 29.84 1009.1
10 05:54 N 3 10.00 Fair CLR 70 66.9 90% 29.85 1009.3
10 04:54 N 7 10.00 Fair CLR 71.1 66.9 87% 29.85 1009.4
10 03:54 NE 6 10.00 Fair CLR 71.1 66.9 87% 29.86 1009.8
10 02:54 N 7 10.00 Fair CLR 71.1 66.9 87% 29.89 1010.6
10 01:54 NE 6 10.00 Fair CLR 73 68 84 71.1 84% 29.91 1011.2
10 00:54 N 3 10.00 Partly Cloudy SCT110 72 68 87% 29.92 1011.8
09 23:54 N 3 10.00 Fair CLR 73 68 84% 29.94 1012.5
09 22:54 N 7 10.00 Fair CLR 73.9 69.1 85% 29.95 1013.0
09 21:54 N 6 10.00 Fair CLR 75.9 69.1 79% 77 29.96 1013.1
Date Time (edt) Wind (mph) Vis. (mi.) Weather Sky Cond. Air Dwpt Max. Min. Relative Humidity Wind Chill (°F) Heat Index (°F) altimeter (in) sea level (mb) 1 hr 3 hr 6 hr
6 hour
Temperature (ºF) Pressure Precipitation (in)